一网星座-0164星 (ONEWEB-0164 )

导读 | 星芒AI

ONEWEB-0164 是 OneWeb 卫星星座计划中的一颗低轨通信卫星,旨在为全球提供高速互联网服务。该卫星采用模块化设计,搭载先进通信载荷,支持宽带数据传输。作为 OneWeb 扩展其卫星网络的一部分,ONEWEB-0164 于近期成功发射,加入其在近地轨道的卫星群,增强覆盖范围与网络性能。该星座致力于为偏远地区、航空和海上用户提供稳定连接,推动全球数字包容性发展。

基本信息
目录编号:
48063
目录名称:
ONEWEB-0164
国际标识:
2021-025X
轨道中心:
EARTH
卫星名称:
一网星座-0164星
卫星全名:
一网星座-0164星 (ONEWEB-0164 )
卫星状态:
在轨 (已飞行1680 天)
发射日期:
2021-03-25 UTC
国别 :
英国 (GB)
星等 :
--
轨道信息
数据来源 国际轨道数据 AOE轨道数据
星历时间 2025-10-30T05:17:56+0800
8小时前
查看轨道信息
2025-10-30T03:00:00+0800
10小时前
查看轨道信息
半长轴 7587.899km 7587.889km
偏心率 0.0001837 0.0001823
轨道倾角 87.904° 87.903°
近地点辐角 102.212° 104.717°
升交点赤经 5.980° 5.998°
平近点角 257.921° 162.776°
近地点 1208.37km 1208.37km
远地点 1211.158km 1211.138km
周期 109.633分钟 109.633分钟
每日圈数 13.134711 13.134736
详细信息
平衡模式:
三轴稳定
覆盖范围:
全球
运营商:
一网卫星公司
运营商所在国:
英国
制造商(研发单位):
一网卫星公司
制造商所在国:
英国
使用方式:
暂无
卫星简介
OneWeb卫星网络由648颗重约125公斤的微型卫星组成,运行在1200公里的轨道上。 每颗卫星都能够提供至少每秒8千兆位的吞吐量,以使用其高吞吐量的Ku频段有效载荷为家庭和移动平台提供互联网接入。该卫星仍在工作。
2D轨道图
3D轨道图
轨道高度分析图
轨道倾角分析图
轨道综合分析图
查看轨道综合分析图